| time (UTC) | temp F | wind direction | speed MPH | gust MPH | rain 1hr in | rain 24hr in | rain mn in | humidity % | barometer mb |
| 20260503225358 | 78 | 133 | 5.0 | 7.0 | 0.00 | 0.00 | 0.00 | 45 | 1016.9 |
| 20260503224854 | 78 | 154 | 3.0 | 6.0 | 0.00 | 0.00 | 0.00 | 46 | 1017.0 |
| 20260503224351 | 79 | 208 | 4.0 | 9.0 | 0.00 | 0.00 | 0.00 | 43 | 1017.1 |
| 20260503223849 | 78 | 213 | 2.0 | 6.0 | 0.00 | 0.00 | 0.00 | 46 | 1017.1 |
| 20260503223347 | 78 | 208 | 2.0 | 7.0 | 0.00 | 0.00 | 0.00 | 45 | 1017.2 |
| 20260503222842 | 78 | 68 | 0.0 | 5.0 | 0.00 | 0.00 | 0.00 | 44 | 1017.3 |
| 20260503222341 | 78 | 168 | 3.0 | 5.0 | 0.00 | 0.00 | 0.00 | 45 | 1017.2 |
| 20260503221839 | 79 | 142 | 4.0 | 9.0 | 0.00 | 0.00 | 0.00 | 43 | 1017.2 |
| 20260503221337 | 78 | 195 | 4.0 | 7.0 | 0.00 | 0.00 | 0.00 | 44 | 1017.4 |
| 20260503220833 | 79 | 152 | 7.0 | 11.0 | 0.00 | 0.00 | 0.00 | 43 | 1017.4 |
| 20260503220330 | 80 | 199 | 2.0 | 5.0 | 0.00 | 0.00 | 0.00 | 45 | 1017.4 |
| 20260503215827 | 80 | 154 | 0.0 | 5.0 | 0.00 | 0.00 | 0.00 | 43 | 1017.5 |
| 20260503215324 | 81 | 150 | 0.0 | 4.0 | 0.00 | 0.00 | 0.00 | 41 | 1017.5 |
| 20260503214822 | 81 | 202 | 3.0 | 7.0 | 0.00 | 0.00 | 0.00 | 41 | 1017.9 |
| 20260503214319 | 79 | 202 | 2.0 | 9.0 | 0.00 | 0.00 | 0.00 | 42 | 1017.7 |
| 20260503213816 | 79 | 101 | 5.0 | 8.0 | 0.00 | 0.00 | 0.00 | 42 | 1017.8 |
| 20260503213313 | 79 | 146 | 5.0 | 11.0 | 0.00 | 0.00 | 0.00 | 41 | 1018.2 |
| 20260503212810 | 79 | 159 | 2.0 | 8.0 | 0.00 | 0.00 | 0.00 | 42 | 1017.9 |
| 20260503212307 | 81 | 135 | 4.0 | 6.0 | 0.00 | 0.00 | 0.00 | 39 | 1018.1 |
| 20260503211800 | 80 | 208 | 6.0 | 7.0 | 0.00 | 0.00 | 0.00 | 43 | 1018.0 |
| 20260503211256 | 80 | 79 | 0.0 | 6.0 | 0.00 | 0.00 | 0.00 | 43 | 1018.1 |
| 20260503210755 | 80 | 163 | 4.0 | 7.0 | 0.00 | 0.00 | 0.00 | 42 | 1018.2 |
| 20260503210254 | 79 | 189 | 5.0 | 7.0 | 0.00 | 0.00 | 0.00 | 43 | 1018.3 |
| 20260503205748 | 78 | 185 | 0.0 | 9.0 | 0.00 | 0.00 | 0.00 | 43 | 1018.5 |
| 20260503205245 | 79 | 108 | 3.0 | 4.0 | 0.00 | 0.00 | 0.00 | 44 | 1018.5 |
| 20260503204742 | 80 | 151 | 2.0 | 9.0 | 0.00 | 0.00 | 0.00 | 41 | 1018.9 |
| 20260503204240 | 80 | 103 | 2.0 | 4.0 | 0.00 | 0.00 | 0.00 | 44 | 1018.6 |
| 20260503203737 | 79 | 104 | 5.0 | 10.0 | 0.00 | 0.00 | 0.00 | 44 | 1018.9 |
| 20260503203234 | 81 | 117 | 3.0 | 5.0 | 0.00 | 0.00 | 0.00 | 43 | 1018.8 |
| 20260503202731 | 80 | 105 | 4.0 | 6.0 | 0.00 | 0.00 | 0.00 | 43 | 1019.0 |
| 20260503202229 | 80 | 190 | 3.0 | 9.0 | 0.00 | 0.00 | 0.00 | 45 | 1018.9 |
| 20260503201727 | 80 | 250 | 2.0 | 12.0 | 0.00 | 0.00 | 0.00 | 46 | 1019.0 |
| 20260503201224 | 79 | 159 | 4.0 | 8.0 | 0.00 | 0.00 | 0.00 | 45 | 1019.0 |
| 20260503200720 | 81 | 157 | 0.0 | 6.0 | 0.00 | 0.00 | 0.00 | 45 | 1019.1 |
| 20260503200217 | 80 | 225 | 4.0 | 7.0 | 0.00 | 0.00 | 0.00 | 47 | 1019.0 |
| 20260503195713 | 79 | 226 | 5.0 | 8.0 | 0.00 | 0.00 | 0.00 | 46 | 1019.5 |
| 20260503195210 | 79 | 212 | 4.0 | 9.0 | 0.00 | 0.00 | 0.00 | 45 | 1019.5 |
| 20260503194708 | 80 | 126 | 3.0 | 4.0 | 0.00 | 0.00 | 0.00 | 45 | 1019.5 |
| 20260503194204 | 79 | 166 | 3.0 | 9.0 | 0.00 | 0.00 | 0.00 | 44 | 1019.5 |
| 20260503193700 | 79 | 127 | 8.0 | 9.0 | 0.00 | 0.00 | 0.00 | 44 | 1019.7 |
| 20260503193156 | 78 | 246 | 5.0 | 6.0 | 0.00 | 0.00 | 0.00 | 42 | 1020.0 |
| 20260503192651 | 80 | 214 | 8.0 | 8.0 | 0.00 | 0.00 | 0.00 | 46 | 1019.9 |
| 20260503192147 | 79 | 153 | 3.0 | 6.0 | 0.00 | 0.00 | 0.00 | 43 | 1019.8 |
| 20260503191644 | 78 | 81 | 4.0 | 6.0 | 0.00 | 0.00 | 0.00 | 45 | 1020.2 |
| 20260503191141 | 79 | 144 | 0.0 | 5.0 | 0.00 | 0.00 | 0.00 | 44 | 1020.1 |
| 20260503190638 | 79 | 202 | 3.0 | 7.0 | 0.00 | 0.00 | 0.00 | 42 | 1020.1 |
| 20260503190135 | 79 | 129 | 3.0 | 7.0 | 0.00 | 0.00 | 0.00 | 44 | 1020.2 |
| 20260503185631 | 79 | 152 | 0.0 | 5.0 | 0.00 | 0.00 | 0.00 | 44 | 1020.4 |
| 20260503185126 | 79 | 181 | 6.0 | 8.0 | 0.00 | 0.00 | 0.00 | 45 | 1020.4 |
| 20260503184622 | 79 | 206 | 5.0 | 6.0 | 0.00 | 0.00 | 0.00 | 45 | 1020.5 |
| 20260503184119 | 79 | 126 | 7.0 | 7.0 | 0.00 | 0.00 | 0.00 | 47 | 1020.5 |
| 20260503183615 | 78 | 100 | 0.0 | 5.0 | 0.00 | 0.00 | 0.00 | 45 | 1020.7 |
| 20260503183113 | 79 | 147 | 4.0 | 7.0 | 0.00 | 0.00 | 0.00 | 46 | 1020.5 |
| 20260503182611 | 79 | 159 | 5.0 | 5.0 | 0.00 | 0.00 | 0.00 | 45 | 1020.6 |
| 20260503182109 | 78 | 206 | 1.0 | 5.0 | 0.00 | 0.00 | 0.00 | 47 | 1020.8 |
| 20260503181605 | 79 | 47 | 3.0 | 5.0 | 0.00 | 0.00 | 0.00 | 48 | 1020.9 |
| 20260503181102 | 78 | 225 | 4.0 | 4.0 | 0.00 | 0.00 | 0.00 | 46 | 1021.0 |
| 20260503180559 | 79 | 106 | 2.0 | 5.0 | 0.00 | 0.00 | 0.00 | 48 | 1021.1 |
| 20260503180056 | 77 | 235 | 6.0 | 6.0 | 0.00 | 0.00 | 0.00 | 50 | 1020.9 |
| 20260503175554 | 77 | 205 | 3.0 | 9.0 | 0.00 | 0.00 | 0.00 | 45 | 1021.1 |
| 20260503175051 | 77 | 212 | 3.0 | 10.0 | 0.00 | 0.00 | 0.00 | 47 | 1021.4 |
| 20260503174548 | 78 | 206 | 5.0 | 7.0 | 0.00 | 0.00 | 0.00 | 46 | 1021.2 |
| 20260503174044 | 78 | 163 | 0.0 | 4.0 | 0.00 | 0.00 | 0.00 | 44 | 1021.4 |
| 20260503173539 | 77 | 154 | 0.0 | 8.0 | 0.00 | 0.00 | 0.00 | 49 | 1021.9 |
| 20260503173036 | 77 | 155 | 9.0 | 9.0 | 0.00 | 0.00 | 0.00 | 47 | 1021.8 |
| 20260503172533 | 76 | 32 | 2.0 | 3.0 | 0.00 | 0.00 | 0.00 | 51 | 1021.7 |
| 20260503172030 | 76 | 228 | 0.0 | 5.0 | 0.00 | 0.00 | 0.00 | 53 | 1021.8 |
| 20260503171527 | 75 | 218 | 5.0 | 12.0 | 0.00 | 0.00 | 0.00 | 51 | 1021.9 |
| 20260503171024 | 75 | 219 | 10.0 | 12.0 | 0.00 | 0.00 | 0.00 | 55 | 1021.9 |
| 20260503170520 | 75 | 228 | 8.0 | 12.0 | 0.00 | 0.00 | 0.00 | 52 | 1022.1 |
| 20260503150907 | 71 | 192 | 0.0 | 5.0 | 0.00 | 0.00 | 0.00 | 69 | 1022.5 |
| 20260503150403 | 70 | 220 | 4.0 | 9.0 | 0.00 | 0.00 | 0.00 | 72 | 1022.3 |
| 20260503131257 | 57 | 270 | 0.0 | 2.0 | 0.00 | 0.00 | 0.00 | 99 | 1021.8 |
| 20260503130754 | 58 | 257 | 0.0 | 2.0 | 0.00 | 0.00 | 0.00 | 99 | 1021.9 |
| 20260503130252 | 58 | 69 | 0.0 | 2.0 | 0.00 | 0.00 | 0.00 | 99 | 1021.6 |
| 20260503120217 | 48 | 195 | 0.0 | 1.0 | 0.00 | 0.00 | 0.00 | 99 | 1021.1 |
| 20260503110639 | 48 | 294 | 0.0 | 0.0 | 0.00 | 0.00 | 0.00 | 99 | 1020.6 |
| 20260503110137 | 48 | 294 | 0.0 | 0.0 | 0.00 | 0.00 | 0.00 | 99 | 1020.5 |
| 20260503081446 | 50 | 74 | 0.0 | 2.0 | 0.00 | 0.00 | 0.00 | 99 | 1020.2 |
| 20260503080943 | 50 | 75 | 0.0 | 1.0 | 0.00 | 0.00 | 0.00 | 99 | 1020.1 |
| 20260503080440 | 50 | 74 | 0.0 | 0.0 | 0.00 | 0.00 | 0.00 | 99 | 1020.0 |
| 20260503072916 | 51 | 82 | 0.0 | 0.0 | 0.00 | 0.00 | 0.00 | 99 | 1020.4 |
| 20260503072413 | 51 | 81 | 0.0 | 1.0 | 0.00 | 0.00 | 0.00 | 99 | 1020.4 |
| 20260503071909 | 51 | 120 | 0.0 | 0.0 | 0.00 | 0.00 | 0.00 | 99 | 1020.6 |
| 20260503071402 | 51 | 120 | 0.0 | 0.0 | 0.00 | 0.00 | 0.00 | 99 | 1020.7 |
| 20260503070857 | 51 | 120 | 0.0 | 0.0 | 0.00 | 0.00 | 0.00 | 99 | 1020.6 |
| 20260503070355 | 51 | 120 | 0.0 | 1.0 | 0.00 | 0.00 | 0.00 | 99 | 1020.6 |
| 20260503060321 | 52 | 73 | 2.0 | 2.0 | 0.00 | 0.00 | 0.00 | 99 | 1020.7 |
| 20260503054809 | 53 | 270 | 0.0 | 0.0 | 0.00 | 0.00 | 0.00 | 99 | 1020.5 |
| 20260503054304 | 53 | 270 | 0.0 | 0.0 | 0.00 | 0.00 | 0.00 | 99 | 1020.7 |
| 20260503053802 | 53 | 270 | 0.0 | 0.0 | 0.00 | 0.00 | 0.00 | 99 | 1020.6 |
| 20260503053301 | 52 | 66 | 0.0 | 0.0 | 0.00 | 0.00 | 0.00 | 99 | 1020.6 |
| 20260503052756 | 52 | 90 | 0.0 | 0.0 | 0.00 | 0.00 | 0.00 | 99 | 1020.7 |
| 20260503052254 | 53 | 90 | 0.0 | 0.0 | 0.00 | 0.00 | 0.00 | 99 | 1020.7 |
| 20260503051748 | 53 | 90 | 0.0 | 0.0 | 0.00 | 0.00 | 0.00 | 99 | 1020.7 |
| 20260503051246 | 53 | 90 | 0.0 | 0.0 | 0.00 | 0.00 | 0.00 | 99 | 1020.8 |
| 20260503050742 | 53 | 114 | 0.0 | 0.0 | 0.00 | 0.00 | 0.00 | 99 | 1020.7 |
| 20260503050233 | 54 | 99 | 0.0 | 1.0 | 0.00 | 0.00 | 0.00 | 99 | 1020.7 |
| 20260503045731 | 53 | 81 | 0.0 | 0.0 | 0.00 | 0.00 | 0.00 | 99 | 1020.5 |
| 20260503045229 | 53 | 90 | 0.0 | 0.0 | 0.00 | 0.00 | 0.00 | 99 | 1020.6 |
| 20260503044724 | 54 | 90 | 0.0 | 0.0 | 0.00 | 0.00 | 0.00 | 99 | 1020.3 |
| 20260503044222 | 54 | 90 | 0.0 | 0.0 | 0.00 | 0.00 | 0.00 | 99 | 1020.5 |
| 20260503043719 | 54 | 90 | 0.0 | 0.0 | 0.00 | 0.00 | 0.00 | 99 | 1020.5 |
| 20260503043216 | 54 | 90 | 0.0 | 1.0 | 0.00 | 0.00 | 0.00 | 99 | 1020.5 |
| 20260503042712 | 54 | 90 | 0.0 | 0.0 | 0.00 | 0.00 | 0.00 | 99 | 1020.6 |
| 20260503042209 | 54 | 74 | 0.0 | 0.0 | 0.00 | 0.00 | 0.00 | 99 | 1020.5 |
| 20260503041705 | 54 | 74 | 0.0 | 0.0 | 0.00 | 0.00 | 0.00 | 99 | 1020.6 |
| 20260503041203 | 55 | 74 | 0.0 | 0.0 | 0.00 | 0.00 | 0.00 | 99 | 1020.5 |
| 20260503040700 | 55 | 74 | 0.0 | 0.0 | 0.00 | 0.00 | 0.00 | 99 | 1020.5 |
| 20260503040157 | 54 | 74 | 0.0 | 0.0 | 0.00 | 0.00 | 0.00 | 99 | 1020.5 |
| 20260503035654 | 55 | 74 | 0.0 | 0.0 | 0.00 | 0.00 | 0.00 | 99 | 1020.3 |
| 20260503035152 | 55 | 74 | 0.0 | 2.0 | 0.00 | 0.00 | 0.00 | 99 | 1020.3 |
| 20260503034649 | 55 | 270 | 0.0 | 0.0 | 0.00 | 0.00 | 0.00 | 99 | 1020.3 |
| 20260503034146 | 55 | 270 | 0.0 | 0.0 | 0.00 | 0.00 | 0.00 | 99 | 1020.3 |
| 20260503033643 | 55 | 270 | 0.0 | 0.0 | 0.00 | 0.00 | 0.00 | 99 | 1020.0 |
| 20260503033140 | 56 | 270 | 0.0 | 0.0 | 0.00 | 0.00 | 0.00 | 99 | 1020.5 |
| 20260503032639 | 56 | 270 | 0.0 | 0.0 | 0.00 | 0.00 | 0.00 | 99 | 1020.4 |
| 20260503032137 | 56 | 270 | 0.0 | 0.0 | 0.00 | 0.00 | 0.00 | 99 | 1020.2 |
| 20260503031634 | 56 | 270 | 0.0 | 0.0 | 0.00 | 0.00 | 0.00 | 99 | 1020.3 |
| 20260503031132 | 56 | 99 | 0.0 | 0.0 | 0.00 | 0.00 | 0.00 | 99 | 1020.0 |
| 20260503030627 | 56 | 99 | 0.0 | 0.0 | 0.00 | 0.00 | 0.00 | 99 | 1019.8 |
| 20260503030124 | 57 | 99 | 0.0 | 0.0 | 0.00 | 0.00 | 0.00 | 99 | 1019.8 |
| 20260503025621 | 57 | 99 | 0.0 | 0.0 | 0.00 | 0.00 | 0.00 | 99 | 1019.8 |
| 20260503025119 | 57 | 99 | 0.0 | 0.0 | 0.00 | 0.00 | 0.00 | 99 | 1019.6 |
| 20260503024615 | 57 | 99 | 0.0 | 0.0 | 0.00 | 0.00 | 0.00 | 98 | 1019.7 |
| 20260503024112 | 57 | 90 | 0.0 | 0.0 | 0.00 | 0.00 | 0.00 | 97 | 1019.6 |
| 20260503023609 | 58 | 81 | 0.0 | 1.0 | 0.00 | 0.00 | 0.00 | 97 | 1019.4 |
| 20260503023107 | 58 | 81 | 0.0 | 0.0 | 0.00 | 0.00 | 0.00 | 96 | 1019.6 |
| 20260503022602 | 58 | 81 | 0.0 | 0.0 | 0.00 | 0.00 | 0.00 | 96 | 1019.6 |
| 20260503022057 | 58 | 81 | 0.0 | 0.0 | 0.00 | 0.00 | 0.00 | 95 | 1019.5 |
| 20260503021555 | 58 | 81 | 0.0 | 0.0 | 0.00 | 0.00 | 0.00 | 96 | 1019.5 |
| 20260503021051 | 59 | 81 | 0.0 | 0.0 | 0.00 | 0.00 | 0.00 | 96 | 1019.7 |
| 20260503020548 | 59 | 81 | 0.0 | 0.0 | 0.00 | 0.00 | 0.00 | 96 | 1019.4 |
| 20260503020045 | 59 | 81 | 0.0 | 0.0 | 0.00 | 0.00 | 0.00 | 94 | 1019.3 |
| 20260503015542 | 60 | 81 | 0.0 | 0.0 | 0.00 | 0.00 | 0.00 | 94 | 1019.2 |
| 20260503015039 | 60 | 81 | 0.0 | 0.0 | 0.00 | 0.00 | 0.00 | 93 | 1019.1 |
| 20260503014535 | 60 | 81 | 0.0 | 0.0 | 0.00 | 0.00 | 0.00 | 92 | 1018.9 |
| 20260503014033 | 61 | 81 | 0.0 | 0.0 | 0.00 | 0.00 | 0.00 | 92 | 1019.0 |
| 20260503013530 | 62 | 81 | 0.0 | 0.0 | 0.00 | 0.00 | 0.00 | 92 | 1019.1 |
| 20260503013028 | 62 | 81 | 0.0 | 0.0 | 0.00 | 0.00 | 0.00 | 92 | 1019.0 |
| 20260503012525 | 62 | 81 | 0.0 | 0.0 | 0.00 | 0.00 | 0.00 | 88 | 1019.0 |
| 20260503012021 | 63 | 81 | 0.0 | 0.0 | 0.00 | 0.00 | 0.00 | 85 | 1019.0 |
| 20260503011518 | 64 | 81 | 0.0 | 0.0 | 0.00 | 0.00 | 0.00 | 86 | 1019.0 |
| 20260503011015 | 65 | 81 | 0.0 | 0.0 | 0.00 | 0.00 | 0.00 | 83 | 1018.9 |
| 20260503010511 | 66 | 81 | 0.0 | 0.0 | 0.00 | 0.00 | 0.00 | 81 | 1018.7 |
| 20260503010009 | 67 | 81 | 0.0 | 0.0 | 0.00 | 0.00 | 0.00 | 77 | 1018.6 |
| 20260503005506 | 68 | 81 | 0.0 | 0.0 | 0.00 | 0.00 | 0.00 | 73 | 1018.8 |
| 20260503005003 | 69 | 81 | 0.0 | 0.0 | 0.00 | 0.00 | 0.00 | 72 | 1018.7 |
| 20260503004459 | 70 | 81 | 0.0 | 0.0 | 0.00 | 0.00 | 0.00 | 64 | 1018.8 |
| 20260503003957 | 70 | 14 | 0.0 | 1.0 | 0.00 | 0.00 | 0.00 | 61 | 1018.8 |
| 20260503003454 | 71 | 23 | 0.0 | 0.0 | 0.00 | 0.00 | 0.00 | 58 | 1018.5 |
| 20260503002951 | 72 | 23 | 0.0 | 2.0 | 0.00 | 0.00 | 0.00 | 54 | 1018.5 |
| 20260503002448 | 74 | 14 | 1.0 | 3.0 | 0.00 | 0.00 | 0.00 | 50 | 1018.7 |
| 20260503001944 | 75 | 23 | 1.0 | 2.0 | 0.00 | 0.00 | 0.00 | 52 | 1018.5 |
| 20260503001441 | 75 | 353 | 0.0 | 2.0 | 0.00 | 0.00 | 0.00 | 51 | 1018.4 |
| 20260503000938 | 75 | 19 | 2.0 | 3.0 | 0.00 | 0.00 | 0.00 | 51 | 1018.6 |
| 20260503000437 | 75 | 60 | 0.0 | 4.0 | 0.00 | 0.00 | 0.00 | 51 | 1018.3 |
| 20260502235933 | 76 | 29 | 1.0 | 3.0 | 0.00 | 0.00 | 0.00 | 49 | 1018.5 |
| 20260502235429 | 75 | 15 | 1.0 | 3.0 | 0.00 | 0.00 | 0.00 | 50 | 1018.3 |
| 20260502234927 | 75 | 24 | 2.0 | 3.0 | 0.00 | 0.00 | 0.00 | 48 | 1018.3 |
| 20260502234423 | 74 | 15 | 2.0 | 6.0 | 0.00 | 0.00 | 0.00 | 50 | 1018.2 |
| 20260502233920 | 75 | 80 | 4.0 | 5.0 | 0.00 | 0.00 | 0.00 | 49 | 1018.2 |
| 20260502233415 | 75 | 37 | 2.0 | 4.0 | 0.00 | 0.00 | 0.00 | 50 | 1018.3 |
| 20260502232913 | 75 | 26 | 3.0 | 5.0 | 0.00 | 0.00 | 0.00 | 49 | 1018.2 |
| 20260502232409 | 75 | 22 | 2.0 | 4.0 | 0.00 | 0.00 | 0.00 | 49 | 1018.2 |
| 20260502231906 | 75 | 3 | 3.0 | 7.0 | 0.00 | 0.00 | 0.00 | 48 | 1018.0 |
| 20260502231404 | 76 | 354 | 1.0 | 3.0 | 0.00 | 0.00 | 0.00 | 50 | 1018.2 |
| 20260502230901 | 76 | 15 | 0.0 | 5.0 | 0.00 | 0.00 | 0.00 | 48 | 1018.1 |
| 20260502230359 | 74 | 24 | 0.0 | 6.0 | 0.00 | 0.00 | 0.00 | 51 | 1018.2 |
| 20260502225856 | 74 | 81 | 3.0 | 5.0 | 0.00 | 0.00 | 0.00 | 49 | 1018.0 |